Dewpoint
24 22 20 19 15 16 15 7 4 3 2 3 8 20 18 26 18 19 33 41 33 27 25 25 29 33 35 28 30 31 31 29 38 46 43 49 52 59 65 67 68 68 67 70 70 68 67 64 63 62 62 64 66 65 62 65 58 61 64 66 66 64 68 72 74 76 76 75 75 75 74 74 73 71 71 72 72 73 72 70 67 66 66 66 67 66 65
24 23 21 21 18 16 15 10 9 8 6 5 4 4 7 12 29 25 24 37 30 24 23 25 28 30 28 28 32 34 34 30 43 37 37 29 51 60 61 66 65 68 68 69 70 71 71 68 67 64 66 69 66 64 62 61 64 63 64 69 71 68 66 71 74 77 77 76 76 75 75 75 73 72 71 72 71 72 71 69 68 67 66 66 65 64 65
24 23 23 22 20 16 15 16 13 12 12 12 9 3 3 15 15 15 18 29 28 26 30 29 30 32 29 31 28 27 36 34 30 32 29 32 33 36 43 56 65 68 69 69 70 71 72 71 71 70 69 68 66 64 65 65 68 64 62 73 73 72 72 72 75 77 77 76 75 75 74 74 73 73 72 72 72 72 71 70 69 69 68 68 65 64 64
25 24 24 22 21 18 17 15 16 16 13 14 10 13 11 13 20 20 15 21 21 26 30 27 29 30 31 31 34 34 34 30 35 35 33 35 41 39 38 53 65 69 69 70 72 72 71 71 72 71 72 70 69 68 68 67 67 65 68 69 69 73 72 76 78 77 75 75 75 74 74 73 72 72 72 72 72 71 71 70 71 70 69 69 66 63 63
30 30 27 26 24 23 21 20 17 17 16 16 15 16 15 13 11 13 16 16 21 26 29 24 29 25 30 30 28 32 36 47 36 37 38 35 35 39 59 61 64 65 67 69 73 72 72 70 71 70 72 70 71 70 72 71 72 68 66 68 73 74 77 77 76 76 75 74 74 74 73 73 72 71 71 71 71 70 69 70 70 70 70 68 66 64 64
32 30 29 29 30 26 24 27 23 23 19 15 16 14 15 16 18 15 15 17 24 23 22 23 28 29 29 34 40 40 41 43 48 37 37 34 33 34 52 58 55 65 69 69 72 73 73 71 69 71 73 72 72 71 71 72 72 73 73 73 75 76 77 77 75 75 74 74 73 73 73 72 72 71 71 71 70 70 69 70 70 69 68 68 67 66 66
33 34 35 32 29 28 35 30 27 25 23 22 21 20 15 17 20 18 17 20 23 25 22 24 29 34 32 33 34 29 31 41 37 41 36 44 40 57 58 57 55 66 69 70 72 73 72 71 71 73 73 73 73 71 72 72 74 76 75 76 76 77 76 76 76 76 75 74 73 73 74 73 73 72 71 70 69 69 67 68 69 69 67 67 67 67 65
36 35 36 30 29 36 30 28 28 28 24 23 23 23 23 19 17 22 21 21 21 28 27 24 27 30 22 23 36 38 32 38 31 30 26 36 51 56 56 64 67 69 67 69 67 71 71 70 70 71 72 72 71 68 69 72 74 75 76 76 75 76 75 75 75 74 73 73 73 74 73 73 73 72 72 72 70 69 68 66 67 67 67 65 65 66 66
34 35 33 32 37 32 31 32 32 29 31 29 28 35 42 35 28 21 22 23 22 20 20 23 29 29 21 28 27 28 42 41 47 40 36 39 41 45 58 58 63 68 69 69 68 73 71 69 69 71 71 70 69 69 72 73 76 75 75 75 74 77 76 75 73 73 73 73 74 73 74 73 72 72 72 72 72 71 69 66 64 64 65 63 66 66 66
36 33 30 31 31 30 30 37 43 39 39 40 42 43 37 39 35 33 23 25 25 25 21 26 29 31 28 24 31 41 36 32 39 44 44 41 40 40 51 60 61 70 70 70 71 71 71 71 72 71 71 73 73 74 74 74 75 75 75 75 76 76 75 74 73 73 73 72 72 72 72 72 72 72 71 71 70 70 68 66 63 62 63 64 66 66 66
35 34 32 31 32 32 40 45 40 41 41 40 42 38 31 34 32 31 25 20 24 25 24 24 29 27 25 29 38 39 36 30 29 41 46 40 35 46 54 58 63 67 68 69 68 71 70 68 72 74 75 74 74 74 74 75 76 75 74 74 74 74 74 74 73 73 72 72 72 72 71 71 70 70 69 69 68 68 66 66 66 65 63 64 63 65 61
34 35 33 31 35 35 46 43 40 40 41 41 39 31 28 37 38 36 34 27 24 25 31 27 28 26 24 28 34 32 31 19 44 53 53 48 47 51 52 56 63 69 71 71 71 69 71 73 72 73 73 73 74 74 75 75 74 74 74 75 74 74 72 72 73 72 72 73 73 72 71 71 71 70 69 68 67 67 66 65 64 63 63 64 64 63 63
32 35 33 33 35 40 44 43 40 40 41 40 36 31 39 53 53 52 51 52 51 31 29 27 24 34 35 35 43 51 54 51 54 54 54 54 53 53 55 61 68 69 70 69 68 68 70 72 71 72 73 72 74 75 75 75 74 74 74 74 74 73 73 71 70 71 72 71 72 72 72 71 69 68 67 67 67 67 65 63 63 65 64 64 64 63 61
29 31 31 30 32 40 42 44 39 42 38 36 34 49 54 53 52 53 51 49 51 47 33 33 31 29 36 37 41 46 53 57 60 59 56 55 54 58 62 67 67 67 65 68 67 67 71 70 71 71 73 74 75 75 74 74 75 74 74 74 74 73 73 72 71 71 71 72 72 71 71 71 70 67 66 68 68 67 64 64 65 65 65 64 63 62 61
31 32 28 26 27 49 45 44 40 46 40 43 52 53 53 52 53 54 56 55 53 48 41 35 37 38 32 37 48 46 52 59 61 61 59 60 58 60 66 67 67 65 66 66 66 70 68 70 71 72 74 75 75 74 73 73 73 75 74 74 74 73 72 71 71 70 71 72 71 71 71 71 69 68 67 68 69 69 66 65 65 65 64 63 60 60 61
28 26 25 27 33 46 45 41 39 48 50 51 54 52 51 53 54 57 59 60 56 49 44 39 36 38 45 51 51 58 61 60 61 61 63 64 65 67 66 65 65 64 68 71 71 70 67 68 67 70 73 72 71 72 73 73 74 74 74 74 73 72 71 70 69 69 70 71 71 71 71 70 69 67 67 68 68 67 65 63 61 62 62 61 60 58 57
32 28 28 49 48 47 47 49 48 50 52 53 52 53 55 56 57 58 60 59 57 56 54 54 55 56 53 57 58 58 59 60 62 64 65 64 63 61 62 62 69 69 68 69 68 65 63 64 64 67 69 72 72 72 73 74 74 73 73 73 72 71 70 69 69 70 71 70 70 70 69 68 68 67 67 66 65 65 63 61 61 62 62 61 61 59 58
49 49 49 48 48 47 46 46 48 47 49 50 50 53 56 58 60 59 59 63 56 56 60 59 61 64 61 58 53 54 56 55 57 58 58 59 60 60 62 66 67 68 68 69 70 70 72 72 74 75 72 72 73 74 75 75 74 74 73 72 71 70 70 70 70 69 70 70 70 69 68 67 67 66 66 63 62 62 59 58 61 62 62 59 59 59 58
41 45 53 51 49 48 47 47 49 49 49 51 55 57 58 58 60 61 61 62 63 61 62 63 63 64 63 60 61 60 60 60 61 62 63 62 59 59 59 60 62 62 63 62 63 63 65 68 69 70 73 74 75 75 75 75 74 73 72 71 70 70 70 70 70 70 69 67 66 66 67 66 65 65 64 62 62 61 59 57 60 60 60 58 57 54 55
41 46 52 53 52 54 53 51 52 49 48 49 53 54 55 60 62 61 61 62 63 61 60 60 61 58 60 63 63 64 64 64 64 65 66 66 63 62 62 63 63 62 61 62 64 65 64 63 65 68 71 72 73 74 73 72 71 72 71 70 69 69 69 69 69 68 67 67 66 64 64 63 62 61 62 60 59 61 60 59 59 58 57 55 54 55 54
52 52 51 51 51 51 51 51 53 54 52 51 49 52 54 53 52 51 51 55 60 62 52 52 52 52 54 56 59 59 62 63 64 65 67 68 68 65 62 63 65 65 66 66 68 68 69 70 71 71 72 72 72 72 71 70 71 70 68 68 69 68 67 67 67 68 66 66 64 64 64 64 67 68 67 61 60 62 68 67 65 58 59 57 57 55 54
46 47 48 48 44 46 48 49 51 54 53 52 52 52 50 49 48 52 50 50 50 49 50 51 52 51 52 51 53 52 55 59 63 64 63 64 65 65 64 64 66 68 69 70 70 70 70 71 71 71 71 70 70 68 68 69 69 69 69 67 67 65 65 65 65 65 64 63 64 63 62 64 63 57 48 42 48 66 60 51 47 44 49 60 56 58 59
47 47 48 52 52 52 52 52 52 53 52 51 51 52 52 51 50 49 49 51 53 50 49 50 51 52 52 52 50 49 49 53 56 60 61 62 63 64 65 65 66 67 68 69 69 69 69 70 70 70 70 68 68 67 69 69 68 70 68 66 65 64 65 63 64 64 63 62 63 64 63 62 62 61 58 56 41 40 46 47 43 40 39 41 44 47 60
50 50 50 50 50 50 52 51 52 53 52 51 50 50 51 51 50 50 52 50 49 49 49 49 50 51 51 51 51 51 50 50 53 54 57 60 60 61 64 66 67 67 67 68 68 68 68 69 68 69 67 68 69 68 70 69 69 70 69 68 66 65 65 65 65 66 63 63 62 62 63 63 62 62 61 61 58 45 40 42 42 40 40 39 39 41 42
50 54 54 54 53 53 54 53 52 51 52 52 51 50 49 50 50 49 48 48 48 48 48 47 48 49 50 49 50 51 51 50 52 51 54 57 56 59 58 60 64 66 67 66 67 68 68 69 68 67 67 68 68 68 70 69 69 69 69 68 66 65 66 65 64 66 62 63 63 62 63 63 62 62 61 60 59 57 53 41 39 39 39 39 39 40 41
52 52 53 53 52 52 52 51 52 52 51 52 52 51 52 53 52 51 49 50 48 49 50 54 48 48 50 50 49 48 50 49 51 51 49 48 50 52 56 60 62 64 65 67 66 65 67 68 67 66 66 66 68 69 69 70 69 70 69 67 65 65 65 65 65 63 63 63 62 63 63 63 62 62 61 61 60 57 55 54 55 49 43 40 40 40 39
52 52 51 49 49 49 52 51 51 53 53 52 52 53 52 51 53 54 52 51 52 50 52 53 54 53 52 54 52 49 48 50 51 51 50 48 47 50 53 58 61 63 63 67 67 68 67 67 67 66 65 65 67 67 67 68 68 67 65 65 64 65 66 64 63 62 62 62 62 62 62 62 61 60 59 58 60 58 56 56 56 56 55 54 45 40 48
51 50 49 49 49 50 50 52 54 55 54 53 53 54 55 51 51 50 49 51 55 55 54 52 50 52 51 51 51 51 50 50 50 51 51 51 49 49 54 56 58 61 63 65 66 67 67 66 65 65 65 66 66 67 66 66 67 66 65 65 64 63 64 64 62 62 61 60 60 62 61 61 61 58 59 56 56 57 55 55 56 57 57 56 52 44 40
49 49 49 49 49 49 50 50 52 54 56 57 57 55 54 53 51 53 50 50 50 51 51 51 52 51 50 51 51 50 50 50 51 52 53 53 54 53 53 55 56 56 61 64 65 66 67 66 65 65 65 65 64 65 65 65 65 63 62 60 61 62 62 62 60 60 60 60 61 61 60 58 58 56 56 56 55 54 56 55 57 59 57 56 54 52 50
49 48 48 48 48 49 49 49 50 51 52 55 54 55 55 53 52 48 48 51 54 52 52 52 52 52 52 51 52 52 51 50 51 53 52 52 52 56 55 56 57 57 59 63 65 66 67 66 65 65 64 63 62 64 61 64 61 62 62 61 60 59 60 61 62 63 64 63 60 59 60 58 60 57 55 56 57 54 53 55 58 59 57 56 55 55 55
49 50 49 50 50 49 49 49 50 50 51 52 54 54 54 54 54 53 50 51 50 51 53 52 53 53 54 53 54 54 53 53 54 55 54 53 54 55 56 59 55 57 57 62 64 65 65 65 64 64 64 62 60 61 60 59 60 61 62 61 59 58 58 60 61 62 60 58 57 55 54 54 55 56 56 56 55 54 56 58 57 58 57 56 56 56 55
48 49 50 49 49 47 47 48 49 50 50 51 52 53 53 53 52 52 52 51 51 50 52 52 53 53 53 54 55 55 55 55 55 56 55 56 57 60 61 60 60 60 57 61 64 65 65 65 63 64 65 62 60 59 58 59 59 56 55 58 57 58 58 57 56 55 56 56 54 55 56 56 57 57 56 55 56 56 57 56 54 55 55 57 56 57 56
49 49 50 49 49 49 49 49 48 49 50 50 51 52 52 52 52 51 52 54 51 54 53 53 53 54 57 55 56 54 54 54 53 55 56 59 60 61 61 60 62 62 61 59 64 63 65 64 63 62 63 61 59 58 57 57 57 54 52 53 55 56 59 57 58 59 59 57 58 58 58 58 58 57 56 56 57 56 56 54 55 54 54 54 57 62 56
50 51 51 52 51 52 51 51 52 51 50 49 48 48 49 49 49 49 49 48 47 47 50 51 52 54 53 52 52 51 53 53 55 55 56 57 57 59 60 60 61 62 63 62 61 62 64 64 65 64 63 60 59 57 57 58 57 55 56 56 57 58 58 58 59 58 57 57 58 59 60 57 56 54 57 55 55 54 55 55 53 53 53 54 63 60 53
52 51 52 51 50 50 51 50 49 48 47 47 48 49 50 49 49 49 50 50 50 50 52 52 52 51 51 51 51 51 52 53 54 55 57 57 57 58 59 60 61 61 62 62 62 59 61 63 65 62 62 59 58 56 57 57 56 57 58 57 57 57 57 58 57 57 57 58 59 58 57 55 56 57 56 55 56 56 54 54 54 53 53 56 59 57 55
53 52 52 51 50 49 49 48 48 48 48 49 49 49 49 50 50 50 50 50 49 50 51 51 51 51 51 52 51 52 52 53 56 57 58 59 59 59 58 57 59 59 59 59 60 60 61 62 65 62 61 58 58 58 59 57 57 58 60 57 56 55 55 56 57 58 57 56 55 55 54 57 58 58 57 56 56 56 54 54 54 54 54 56 56 55 55
49 49 50 51 50 50 49 50 50 50 50 51 51 51 51 51 51 51 50 49 49 51 51 50 51 51 49 51 49 49 53 54 55 56 59 60 60 61 60 60 61 57 56 57 60 58 62 63 63 65 60 59 59 60 60 64 60 59 59 57 57 56 54 54 53 53 53 55 52 57 60 60 57 59 58 55 55 55 55 55 56 54 55 55 55 54 53
48 49 50 50 50 50 50 49 49 51 50 49 51 52 52 51 50 51 52 52 53 54 54 52 50 53 53 54 52 50 53 54 54 56 58 58 58 59 59 59 58 59 58 59 60 61 62 62 61 61 61 61 63 61 63 64 62 57 56 54 54 53 52 52 52 53 55 57 58 56 54 52 53 54 53 53 55 56 54 54 54 53 52 51 51 53 54
48 49 49 49 49 50 50 49 49 49 48 50 51 51 50 51 50 51 52 52 52 53 53 54 53 53 53 53 52 52 53 53 55 55 56 57 58 59 59 59 59 59 59 60 60 61 61 62 63 63 62 61 60 57 60 62 60 56 55 57 55 55 53 53 55 56 56 57 54 54 54 53 53 53 54 54 55 56 54 53 52 53 52 51 51 51 52
49 49 50 49 49 50 50 49 48 48 47 47 49 50 50 50 50 50 51 52 53 53 52 52 53 53 53 52 52 52 54 54 55 56 57 57 58 57 58 60 60 59 59 58 59 60 59 59 59 60 60 60 59 60 60 60 58 57 56 55 55 54 55 54 53 51 53 53 53 56 54 55 54 53 52 53 53 53 53 53 52 52 52 52 52 51 51
48 49 49 49 49 48 48 48 49 51 49 48 47 51 51 51 51 51 50 51 52 53 53 53 54 56 56 54 53 52 53 57 58 57 56 56 55 56 55 56 59 59 58 58 58 57 58 56 55 57 57 57 56 58 57 58 57 55 55 54 53 52 52 51 52 52 55 54 56 54 53 53 53 52 52 52 52 51 51 52 51 50 48 48 49 48 48
48 49 50 50 50 51 50 49 49 50 51 51 52 51 50 50 50 50 51 50 51 51 52 53 53 54 54 54 52 53 53 53 56 58 59 57 57 55 55 56 57 59 61 60 60 59 59 57 58 57 57 56 56 55 53 54 55 54 53 52 52 53 52 53 52 52 54 54 55 54 53 54 53 51 50 51 49 49 49 48 47 46 46 44 44 44 44
46 46 47 48 50 50 49 50 49 49 49 49 49 50 50 50 50 50 48 51 50 51 51 51 52 52 53 53 54 54 53 54 55 54 56 56 58 58 57 56 57 59 57 60 59 61 57 56 56 56 56 55 54 58 59 54 53 50 51 50 52 52 52 51 51 51 52 52 52 51 52 53 51 49 49 47 46 44 43 41 42 44 44 45 42 41 41
46 45 46 46 47 47 47 48 48 48 48 48 49 50 50 50 50 49 49 49 50 50 50 50 50 51 51 52 52 54 53 51 51 51 52 52 52 54 56 54 55 55 56 54 54 54 54 54 53 55 56 55 54 55 54 52 47 47 47 48 47 48 48 48 49 49 49 50 49 49 50 50 48 47 47 45 42 42 43 42 43 42 43 43 42 42 43
45 46 46 45 47 47 46 46 48 47 47 47 47 48 48 48 49 48 48 49 49 49 49 49 49 48 48 48 51 52 51 51 51 50 49 50 51 52 55 55 52 51 53 57 52 55 54 54 55 55 54 56 55 55 50 46 45 45 45 44 44 44 44 45 45 47 47 48 48 48 50 48 46 45 44 42 43 40 38 40 43 42 42 41 40 40 41
45 45 46 45 45 46 46 47 47 46 44 44 43 45 47 48 46 48 48 47 48 47 47 48 48 48 47 46 47 49 50 50 49 50 51 52 52 54 55 54 52 53 54 55 51 54 55 59 58 56 56 56 55 52 47 46 46 44 44 44 45 45 43 43 43 44 44 45 45 45 45 44 43 41 42 41 41 42 41 43 42 42 42 41 41 41 41
44 44 45 46 46 46 46 46 45 44 43 43 43 43 44 45 44 44 45 45 45 44 46 45 44 46 46 47 45 44 42 43 45 44 47 48 51 52 53 54 52 53 52 51 50 51 51 53 54 57 58 54 54 51 48 45 46 45 44 44 44 44 44 44 45 45 43 43 45 46 49 45 42 42 42 44 42 42 42 42 41 41 41 41 42 42 41
43 43 43 44 45 45 45 44 43 42 43 42 43 43 41 43 44 41 42 43 43 42 42 42 43 44 46 42 43 45 43 43 41 43 42 41 44 48 48 45 47 52 52 54 52 55 58 59 60 58 56 54 50 48 48 44 43 44 45 44 47 45 44 43 42 43 43 43 44 47 44 43 43 43 42 41 41 41 41 41 41 40 38 38 39 38 40
47 44 42 41 41 42 42 42 41 42 42 43 44 43 43 42 44 42 41 42 41 39 37 39 39 41 41 46 46 42 43 45 47 42 43 43 42 43 43 52 52 52 50 47 47 50 58 58 57 58 57 56 50 49 49 46 45 45 44 43 44 43 44 43 43 42 42 43 43 43 43 42 42 44 42 42 41 40 39 40 39 38 37 38 37 38 38
46 44 43 42 42 43 43 41 39 40 43 43 43 41 42 40 38 40 41 39 39 40 38 38 39 40 39 41 41 42 43 45 46 46 45 44 44 47 43 45 47 49 47 46 45 43 60 56 56 57 55 52 50 50 50 48 46 45 45 45 44 44 44 44 46 45 45 45 42 40 40 41 42 42 42 42 41 40 40 40 43 44 44 42 39 38 36
54 53 47 44 42 44 45 45 44 45 43 43 43 43 45 39 38 40 41 40 39 40 38 38 38 39 40 40 41 41 43 44 43 46 44 43 47 44 44 43 43 46 47 46 47 45 46 53 52 53 53 52 50 49 50 49 48 47 48 44 45 44 44 43 44 44 44 44 43 42 43 42 42 43 41 41 41 42 42 42 41 41 41 39 36 37 36
45 47 47 44 43 43 44 45 46 44 44 43 41 41 40 39 39 38 39 43 40 40 39 41 39 40 39 41 42 41 42 42 43 41 42 44 42 40 42 44 40 42 44 45 45 46 45 45 47 49 50 48 48 48 52 53 48 47 47 48 49 45 43 43 44 43 43 42 42 43 43 43 43 42 43 43 43 43 42 42 41 40 40 38 37 38 38